EW4210 Weather Reports


Display with metric or nautical units.
time (UTC)temp
F
wind
direction
speed
MPH
gust
MPH
rain 1hr
in
rain 24hr
in
rain mn
in
humidity
%
barometer
mb
20260902144541 87 290 0.0 3.0 0.00 0.00 0.00 68 1016.8
20260902143023 87 281 1.0 3.0 0.00 0.00 0.00 69 1016.7
20260902141557 86 281 0.0 3.0 0.00 0.00 0.00 71 1016.8
20260902140043 85 281 0.0 2.0 0.00 0.00 0.00 71 1016.8
20260902134513 83 92 0.0 0.0 0.00 0.00 0.00 77 1016.7
20260902133055 81 92 0.0 0.0 0.00 0.00 0.00 83 1016.7
20260902131543 78 92 0.0 0.0 0.00 0.00 0.00 89 1016.6
20260902130010 76 92 0.0 0.0 0.00 0.00 0.00 91 1016.5
20260902124559 75 92 0.0 0.0 0.00 0.00 0.00 92 1016.4
20260902123031 74 92 0.0 0.0 0.00 0.00 0.00 92 1016.3
20260902121514 74 92 0.0 0.0 0.00 0.00 0.00 92 1016.3
20260902120053 73 92 0.0 0.0 0.00 0.00 0.00 92 1016.1
20260902114534 73 92 0.0 0.0 0.00 0.00 0.00 91 1015.9
20260902113018 74 92 0.0 0.0 0.00 0.00 0.00 91 1015.7
20260902111552 74 92 0.0 0.0 0.00 0.00 0.00 91 1015.7
20260902110034 74 92 0.0 0.0 0.00 0.00 0.00 91 1015.6
20260902104517 74 92 0.0 0.0 0.00 0.00 0.00 90 1015.7
20260902103102 74 92 0.0 0.0 0.00 0.00 0.00 90 1015.5
20260902101533 74 92 0.0 0.0 0.00 0.00 0.00 90 1015.6
20260902100017 74 92 0.0 0.0 0.00 0.00 0.00 90 1015.3
20260902094556 74 92 0.0 0.0 0.00 0.00 0.00 90 1015.4
20260902094503 74 92 0.0 0.0 0.00 0.00 0.00 89 1015.4
20260902093038 75 92 0.0 0.0 0.00 0.00 0.00 90 1015.2
20260902091553 75 92 0.0 0.0 0.00 0.00 0.00 88 1015.1
20260902090104 75 92 0.0 0.0 0.00 0.00 0.00 88 1015.2
20260902084545 75 92 0.0 0.0 0.00 0.00 0.00 88 1015.1
20260902083020 75 92 0.0 0.0 0.00 0.00 0.00 88 1015.1
20260902081601 76 92 0.0 0.0 0.00 0.00 0.00 88 1015.2
20260902081502 75 92 0.0 0.0 0.00 0.00 0.00 88 1015.2
20260902080052 76 92 0.0 0.0 0.00 0.00 0.00 86 1015.1
20260902074527 76 92 0.0 0.0 0.00 0.00 0.00 86 1015.2
20260902073110 76 92 0.0 0.0 0.00 0.00 0.00 86 1015.2
20260902071554 77 92 0.0 0.0 0.00 0.00 0.00 85 1015.3
20260902070025 77 92 0.0 0.0 0.00 0.00 0.00 84 1015.3
20260902064608 77 92 0.0 0.0 0.00 0.00 0.00 82 1015.3
20260902064502 77 92 0.0 0.0 0.00 0.00 0.00 82 1015.3
20260902063046 77 92 0.0 0.0 0.00 0.00 0.00 82 1015.3
20260902061539 78 92 0.0 0.0 0.00 0.00 0.00 83 1015.1
20260902060011 78 92 0.0 0.0 0.00 0.00 0.00 81 1015.1
20260902054547 78 92 0.0 0.0 0.00 0.00 0.00 81 1014.9
20260902053025 79 92 0.0 0.0 0.00 0.00 0.00 80 1014.9
20260902051512 79 92 0.0 0.0 0.00 0.00 0.00 79 1014.7
20260902050053 80 92 0.0 0.0 0.00 0.00 0.00 79 1014.6
20260902044533 80 92 0.0 0.0 0.00 0.00 0.00 78 1014.7
20260902043016 80 92 0.0 0.0 0.00 0.00 0.00 78 1014.6
20260902041551 80 92 0.0 0.0 0.00 0.00 0.00 77 1014.6
20260902040037 81 92 0.0 0.0 0.00 0.00 0.00 76 1014.7
20260902034515 81 92 0.0 0.0 0.00 0.00 0.00 76 1014.7
20260902033055 81 92 0.0 0.0 0.00 0.00 0.00 76 1014.7
20260902031541 82 92 0.0 0.0 0.00 0.00 0.00 74 1014.6
20260902030022 82 92 0.0 0.0 0.00 0.00 0.00 73 1014.5
20260902024556 82 92 0.0 0.0 0.00 0.00 0.00 73 1014.4
20260902024502 82 92 0.0 0.0 0.00 0.00 0.00 73 1014.3
20260902023041 83 92 0.0 0.0 0.00 0.00 0.00 73 1014.3
20260902021528 83 92 0.0 0.0 0.00 0.00 0.00 72 1014.0
20260902020011 83 92 0.0 0.0 0.00 0.00 0.00 72 1013.8
20260902014554 84 92 0.0 0.0 0.00 0.00 0.00 71 1013.5
20260902013031 85 92 0.0 0.0 0.00 0.00 0.00 67 1013.4
20260902011521 86 92 0.0 0.0 0.00 0.00 0.00 64 1013.3
20260902010115 86 92 0.0 1.0 0.00 0.00 0.00 63 1013.4
20260902004533 87 92 0.0 2.0 0.00 0.00 0.00 62 1013.5
20260902003022 88 91 0.0 2.0 0.00 0.00 0.00 61 1013.5
20260902001557 89 117 0.0 2.0 0.00 0.00 0.00 58 1013.6
20260902000045 91 117 0.0 2.0 0.00 0.00 0.00 54 1013.7
20260901234517 92 119 0.0 0.0 0.00 0.00 0.00 54 1013.9
20260901233102 92 116 1.0 3.0 0.00 0.00 0.00 50 1013.9
20260901231545 93 110 1.0 3.0 0.00 0.00 0.00 49 1014.0
20260901230028 93 107 1.0 8.0 0.00 0.00 0.00 47 1014.0
20260901224503 94 66 0.0 3.0 0.00 0.00 0.00 46 1014.0
20260901223048 94 65 1.0 5.0 0.00 0.00 0.00 45 1013.9
20260901221521 94 105 0.0 5.0 0.00 0.00 0.00 49 1013.9
20260901220056 95 75 1.0 6.0 0.00 0.00 0.00 48 1014.0
20260901214545 95 101 2.0 5.0 0.00 0.00 0.00 48 1014.1
20260901213033 95 120 2.0 7.0 0.00 0.00 0.00 46 1014.2
20260901211517 95 64 2.0 6.0 0.00 0.00 0.00 47 1014.3
20260901210045 95 61 1.0 4.0 0.00 0.00 0.00 49 1014.4
20260901204528 95 127 0.0 4.0 0.00 0.00 0.00 55 1014.4
20260901203009 94 102 1.0 7.0 0.00 0.00 0.00 53 1014.6
20260901201547 94 121 2.0 7.0 0.00 0.00 0.00 52 1014.8
20260901200041 95 75 2.0 8.0 0.00 0.00 0.00 52 1014.9
20260901194506 95 91 2.0 6.0 0.00 0.00 0.00 52 1015.1
20260901193059 96 34 2.0 7.0 0.00 0.00 0.00 52 1015.2
20260901191534 95 111 1.0 4.0 0.00 0.00 0.00 51 1015.4
20260901190012 95 38 5.0 9.0 0.00 0.00 0.00 48 1015.6
20260901184550 95 130 3.0 6.0 0.00 0.00 0.00 49 1015.8
20260901183028 96 269 0.0 4.0 0.00 0.00 0.00 53 1015.9
20260901181510 95 161 1.0 4.0 0.00 0.00 0.00 53 1016.2
20260901180051 94 69 1.0 8.0 0.00 0.00 0.00 53 1016.3
20260901174545 94 153 2.0 3.0 0.00 0.00 0.00 54 1016.4
20260901173020 94 121 2.0 4.0 0.00 0.00 0.00 53 1016.7
20260901171557 94 74 0.0 2.0 0.00 0.00 0.00 59 1016.9
20260901170117 94 146 0.0 4.0 0.00 0.00 0.00 54 1017.1
20260901164518 92 248 1.0 4.0 0.00 0.00 0.00 59 1017.4
20260901163104 93 274 2.0 4.0 0.00 0.00 0.00 54 1017.4
20260901161537 92 268 3.0 5.0 0.00 0.00 0.00 57 1017.5
20260901160026 92 223 0.0 3.0 0.00 0.00 0.00 61 1017.6
20260901154603 91 255 1.0 3.0 0.00 0.00 0.00 60 1017.5
20260901154501 91 255 1.0 3.0 0.00 0.00 0.00 59 1017.6
20260901153049 92 113 0.0 2.0 0.00 0.00 0.00 58 1017.6
20260901151510 91 191 0.0 2.0 0.00 0.00 0.00 60 1017.5
20260901150036 90 204 0.0 0.0 0.00 0.00 0.00 62 1017.5